[Date Prev][Date Next][Thread Prev][Thread Next] - [Date Index][Thread Index][Author Index]
2 Line ISS Keps 4-3
- Subject: [sarex] 2 Line ISS Keps 4-3
- From: "Dave Larsen PhD" <doc@xxxxxxxxxxx>
- Date: Wed, 3 Apr 2002 02:12:23 -0800
ISS
1 25544U 98067A 02093.18137731 .00049877 00000-0 61873-3 0 2575
2 25544 51.6372 69.8288 0003580 353.3922 185.7115 15.59517354192331
----
Via the sarex mailing list at AMSAT.ORG courtesy of AMSAT-NA.
To unsubscribe, send "unsubscribe sarex" to Majordomo@amsat.org
AMSAT Home